STARLINK-32871, 62924

Orbit data source: Space-Track

STARLINK-32871, 62924 is a payload satellite owned by SpaceX/Seattle (US) in LEO that was launched on Sat, 08 Feb 2025 UTC via an FALCON 9 launch vehicle from the Air Force Eastern Test Range (AFETR). Payload-class satellites include a variety of spacecraft equipped with specific instruments for various scientific and technological missions. These include communications satellites like Starlink; space stations such as the ISS; scientific satellites like the Hubble; Earth observation satellites from companies like Planet Labs, Umbra, and HawkEye 360; GPS; miniature CubeSats for education and research; and military/defense satellites.

Loading next visibility...
Identifier
62924, 2025-027T
Orbit
LEO
Country
Flag of USUS
Related business
Manufacturer
SpaceX/Seattle
Mission
Operational Commercial Communications
Bus & Motor
STARLINK V2M, Unknown motor
Mass
730 kg wet, ~700 kg dry
Launch date (UTC)
2025-02-08 (7 months ago)
Launch vehicle
FALCON 9
Launch site
Air Force Eastern Test Range (AFETR)
Object type
Payload
Rocket body
Debris
Shape & HBR
Box + 2 Pan, 14.5 m
Radar Cross Section
33.884 m², Large (>1 m²)

Expand to show TLE details & history
Last TLE update: 19 hours ago

TLE from 19 hours ago
0 STARLINK-32871
1 62924U 25027T   25258.39759110  .00062262  00000-0  22503-2 0  9998
2 62924  43.0025  38.8208 0006111 130.3861 229.7525 15.27607001 34737
Epoch: 2025-09-15T09:32Z
TLE epoch observation values (Epoch: 2025-09-15T09:32:31.871Z)
Latitude
0.00001°
Longitude
-98.91481°
Altitude
485.454 km
Speed
7.623 km/s
True Right ascension
02h 35m 16s
True Declination
0° 00' 00"
Sunlit
Object was in full shadow at epoch
Visualization orbit readout
Latitude
Unknown
Longitude
Unknown
Altitude
Unknown
Speed
Unknown
Apparent Right ascension
Unknown
Apparent Declination
Unknown
Sunlit
N/A
Visualization observer readout
Local Sidereal Time
21:24:26
Azimuth
Unknown
Elevation
Unknown
Doppler factor
Unknown
Orbital elements
Apogee altitude
489.107 km
Perigee altitude
480.719 km
Semi-major axis
6,863.05 km
Eccentricity
0.00061
Inclination
43.0025°
RAAN
38.8208°
Arg. of periapsis
130.3861°
True anomaly
229.69908°
Mean anomaly
229.7525°
Eccentric anomaly
229.72579°
Mean motion
3.8174 °/min
Orbital period
94.31 mins
BSTAR
0.0022503
Loading maneuver chart data...
Computing Atmospheric mass density...
Loading historical data...
Loading historical data...
Loading historical data...
Loading historical data...
Loading historical data...
Loading historical data...
Loading historical data...

Documentation

Showing up to 5 results
|